Disclaimer

Please do not use the information listed here in-flight or in-navigation, as they are not provided to us by the airports but are provided by volunteers, so they might be outdated.

Search


Regions


Airport information page

Radio informations:
Tower (TWR) - 118.075 MHz
Approach (APP) - 132.7 MHz

Airport informations:
Latitude: 51° 30' 19.00" N
Longitude: 000° 03' 19.00" E
Elevation: 19 feet - 6 meters
Operating hours: Remarks
Operating agency: Civil government, landing fees and diplomatic clearance may be required
Timezone: UTC 0(+1DT) - Last Sunday in March to last Sunday in October
Fuel: N/A

Runway information:
10/28 - 4948 x 98 feet< - >1508 x 30 meters

Recent METARs:
EGLC 212020Z AUTO 21006KT 160V240 9999 NCD 04/01 Q1015
EGLC 212050Z AUTO 21005KT 150V280 9999 NCD 04/01 Q1014
EGLC 212120Z AUTO 20006KT 130V230 9999 OVC044 05/01 Q1014

Airport on the map: